sat.trackr.live / text

‹ back to catalog

STARLINK-2180

NORAD 47762 · 2021-017AS

PAYLOAD ACTIVE UNKNOWN

§ Identity

Operator
Country
US
Launch date
2021-03-04
Launch site
AFETR
Launch vehicle
Mass (kg)
RCS (m²)

Purposes: comms

External: N2YO · Heavens-Above · Gunter

§ Orbital elements

Epoch: 2026-09-10T05:02:34.106208Z

Period
88.20 min
Inclination
53.1329°
Eccentricity
0.0011416
Mean motion
16.32740718 rev/d
Perigee alt
177.7 km
Apogee alt
192.7 km
Semi-major
6,563.3 km
B*
8.5190e-4
RAAN
23.3488°
Arg perigee
311.2481°
Mean anomaly
48.7579°
Rev number
30,671

§ Raw data

STARLINK-21801 47762U 21017AS  26253.21011697  .05332534  12212-4  85190-3 0  99952 47762  53.1329  23.3488 0011416 311.2481  48.7579 16.32740718306718

JSON: /api/v1/satellites/47762 · /tle

For live sub-satellite position, see the globe view (requires WebGL).

§ Visibility from observer

Set your observer location to see the next 7 days of passes ≥ 10°. The values pass through the URL so the page stays shareable.

No JS? Fill the form by hand. The geolocation button needs JavaScript.